THOR ABLESTAR DEB, 124

Orbit data source: Space-Track

THOR ABLESTAR DEB, 124 is space debris in LEO originally from a launch on Thu, 29 Jun 1961 UTC launched from the Air Force Eastern Test Range (AFETR). Debris objects in space refer to the collection of defunct objects orbiting the Earth. Examples of debris include non-operational satellites, rocket bodies, and fragments generated from explosions, collisions, or faulty payload assembly.

Loading next visibility...
Identifier
124, 1961-015J
Orbit
LEO
Country
Flag of USUS
Related business
Manufacturer
Unknown
Mission
Spacecraft
Bus & Motor
Unknown
Mass
Unknown
Launch date (UTC)
1961-06-29 (65 years ago)
Launch vehicle
Unknown
Launch site
Air Force Eastern Test Range (AFETR)
Object type
Payload
Rocket body
Debris
Shape & HBR
Unknown shape, 0.2 m
Radar Cross Section
Medium (>0.1 m² and <1 m²)

Expand to show TLE details & history
Last TLE update: 5 days ago

TLE from 5 days ago
0 THOR ABLESTAR DEB
1   124U 61015J   26154.62451336  .00000922  00000-0  33880-3 0  9996
2   124  66.5448 279.6441 0064578 146.7821 213.7359 14.35998963356982
Epoch: 2026-06-03T14:59Z
TLE epoch observation values (Epoch: 2026-06-03T14:59:17.954Z)
Latitude
-0.00002°
Longitude
162.73883°
Altitude
812.343 km
Speed
7.427 km/s
True Right ascension
18h 38m 34s
True Declination
0° 00' 00"
Sunlit
Object was in full shadow at epoch
Visualization orbit readout
Latitude
Unknown
Longitude
Unknown
Altitude
Unknown
Speed
Unknown
Apparent Right ascension
Unknown
Apparent Declination
Unknown
Sunlit
N/A
Visualization observer readout
Local Sidereal Time
04:24:12
Azimuth
Unknown
Elevation
Unknown
Doppler factor
Unknown
Orbital elements
Apogee altitude
816.299 km
Perigee altitude
723.975 km
Semi-major axis
7,148.274 km
Eccentricity
0.00646
Inclination
66.5448°
RAAN
279.6441°
Arg. of periapsis
146.7821°
True anomaly
213.32767°
Mean anomaly
213.7359°
Eccentric anomaly
213.53151°
Mean motion
3.59121 °/min
Orbital period
100.24 mins
BSTAR
0.0003388
Loading maneuver chart data...
Computing Atmospheric mass density...

Documentation

Showing up to 5 results
|